Weather History for KNEW - January, 2012

Change the Weather History Date:

Wednesday, January 25, 2012

  Actual Average Record
Temperature  
Mean Temperature 72 °F 54 °F  
Max Temperature 79 °F 62 °F 81 °F (1970)
Min Temperature 65 °F 45 °F 18 °F (1963)
Degree Days  
Heating Degree Days 0 12  
Month to date heating degree days 148 300  
Since 1 July heating degree days 550 781  
Cooling Degree Days 7 0  
Month to date cooling degree days 59 12  
Year to date cooling degree days 59 12  
Growing Degree Days 20 (Base 50)    
Moisture  
Dew Point 68 °F    
Average Humidity 80    
Maximum Humidity 93    
Minimum Humidity 67    
Precipitation  
Precipitation 0.00 in 0.17 in 2.32 in (1974)
Month to date precipitation 0.49 4.13  
Year to date precipitation 0.49 4.13  
Snow  
Snow 0.00 in - - ()
Month to date snowfall 0.0  
Since 1 July snowfall 0.0  
Snow Depth 0.00 in    
Sea Level Pressure  
Sea Level Pressure 29.98 in    
Wind  
Wind Speed 14 mph (SE)    
Max Wind Speed 24 mph    
Max Gust Speed 31 mph    
Visibility 7 miles    
Events Fog    
T = Trace of Precipitation, MM = Missing Value Source: NWS Daily Summary

Daily Weather History Graph

Daily Weather History Graph

Search for Another Location

Airport or City:

Trip Planner

Search our weather history database for the weather conditions in past years. The results will help you decide how hot, cold, wet, or windy it might be!

Date:

Astronomy

Jan. 25, 2012 Rise Set
Actual Time 6:54 AM CST 5:30 PM CST
Civil Twilight 6:28 AM CST 5:56 PM CST
Nautical Twilight 5:59 AM CST 6:25 PM CST
Astronomical Twilight 5:31 AM CST 6:53 PM CST
Moon 8:08 AM CST (1/25) 8:07 PM CST (1/25)
Length of Visible Light 11h 27m
Length of Day
10h 36m
Waxing Crescent, 7% of the Moon is Illuminated
Jan 25
Waxing Crescent
Jan 30
First Quarter
Feb 7
Full
Feb 14
Last Quarter
Feb 21
New

Hourly Weather History & Observations

Time (CST) Temp. Dew Point Humidity Pressure Visibility Wind Dir Wind Speed Gust Speed Precip Events Conditions
12:53 AM 64.0 °F 64.0 °F 100% 30.05 in 5.0 mi East 9.2 mph - N/A   Overcast
1:06 AM 64.4 °F 64.4 °F 100% 30.06 in 5.0 mi ESE 10.4 mph - N/A   Overcast
1:53 AM 64.9 °F 64.9 °F 100% 30.03 in 2.0 mi ESE 10.4 mph - N/A   Overcast
2:01 AM 66.2 °F 66.2 °F 100% 30.05 in 1.5 mi ESE 12.7 mph - N/A   Overcast
2:24 AM 66.2 °F 66.2 °F 100% 30.05 in 0.5 mi ESE 9.2 mph - N/A Fog Fog
2:53 AM 66.0 °F 66.0 °F 100% 30.02 in 0.5 mi ESE 10.4 mph - N/A Fog Fog
3:16 AM 66.2 °F 66.2 °F 100% 30.04 in 1.2 mi ESE 9.2 mph - N/A   Overcast
3:43 AM 66.2 °F 66.2 °F 100% 30.03 in 3.0 mi ESE 10.4 mph - N/A   Overcast
3:53 AM 66.0 °F 66.0 °F 100% 30.01 in 3.0 mi ESE 10.4 mph - N/A   Overcast
4:50 AM 66.2 °F 66.2 °F 100% 30.02 in 5.0 mi ESE 8.1 mph - N/A   Overcast
4:53 AM 66.2 °F 66.2 °F 100% 30.03 in 5.0 mi ESE 6.9 mph - N/A   Overcast
5:42 AM 66.2 °F 66.2 °F 100% 30.03 in 9.0 mi SE 8.1 mph - N/A   Overcast
5:53 AM 66.2 °F 66.2 °F 100% 30.03 in 9.0 mi SE 9.2 mph - N/A   Overcast
6:53 AM 66.9 °F 66.9 °F 100% 30.01 in 7.0 mi SE 10.4 mph - N/A   Overcast
7:02 AM 66.2 °F 66.2 °F 100% 30.03 in 7.0 mi SE 10.4 mph - N/A   Overcast
7:53 AM 66.9 °F 66.9 °F 100% 30.02 in 7.0 mi SE 11.5 mph - N/A   Overcast
8:53 AM 70.0 °F 68.0 °F 93% 30.00 in 10.0 mi SE 16.1 mph 20.7 mph N/A   Mostly Cloudy
9:39 AM 73.4 °F 68.0 °F 83% 30.01 in 10.0 mi SE 18.4 mph 27.6 mph N/A   Mostly Cloudy
9:53 AM 73.0 °F 68.0 °F 84% 30.00 in 10.0 mi SE 19.6 mph 31.1 mph N/A   Mostly Cloudy
10:53 AM 73.9 °F 68.0 °F 82% 30.03 in 10.0 mi SSE 19.6 mph 27.6 mph N/A   Mostly Cloudy
11:53 AM 75.0 °F 68.0 °F 79% 29.99 in 10.0 mi SE 16.1 mph 25.3 mph N/A   Overcast
12:53 PM 75.0 °F 69.1 °F 82% 29.96 in 10.0 mi SE 15.0 mph - N/A   Overcast
1:53 PM 75.9 °F 69.1 °F 79% 29.93 in 10.0 mi SSE 16.1 mph 25.3 mph N/A   Mostly Cloudy
2:53 PM 75.0 °F 69.1 °F 82% 29.90 in 10.0 mi SE 15.0 mph - N/A   Overcast
3:48 PM 73.4 °F 69.8 °F 88% 29.91 in 10.0 mi SE 20.7 mph - N/A   Overcast
3:53 PM 73.9 °F 70.0 °F 87% 29.89 in 10.0 mi SE 15.0 mph 23.0 mph N/A   Overcast
4:53 PM 72.0 °F 70.0 °F 93% 29.91 in 10.0 mi SSE 15.0 mph - 0.00 in   Mostly Cloudy
5:16 PM 71.6 °F 69.8 °F 94% 29.93 in 10.0 mi SSE 15.0 mph - N/A   Mostly Cloudy
5:53 PM 72.0 °F 70.0 °F 93% 29.93 in 10.0 mi SSE 13.8 mph - N/A   Overcast
6:17 PM 71.6 °F 69.8 °F 94% 29.94 in 10.0 mi SSE 15.0 mph - N/A   Overcast
6:53 PM 71.1 °F 70.0 °F 96% 29.93 in 10.0 mi SSE 13.8 mph - N/A   Mostly Cloudy
7:53 PM 71.1 °F 70.0 °F 96% 29.92 in 10.0 mi SSE 18.4 mph - N/A   Scattered Clouds
8:53 PM 70.0 °F 70.0 °F 100% 29.92 in 10.0 mi SSE 16.1 mph - N/A   Clear
9:47 PM 69.8 °F 69.8 °F 100% 29.94 in 9.0 mi SSE 17.3 mph - N/A   Mostly Cloudy
9:53 PM 70.0 °F 70.0 °F 100% 29.93 in 8.0 mi SSE 16.1 mph - N/A   Mostly Cloudy
10:53 PM 70.0 °F 70.0 °F 100% 29.91 in 7.0 mi SSE 12.7 mph - N/A   Overcast
11:53 PM 70.0 °F 70.0 °F 100% 29.90 in 8.0 mi SSE 16.1 mph - N/A   Overcast